Wind_Speed
7 7 6 7 7 7 6 7 7 7 7 7 8 8 8 9 9 8 7 8 8 8 7 7 7 7 7 7 6 6 7 7 7 7 7 7 8 8 8 8 9 9 9 9
8 7 7 7 7 7 6 5 6 7 7 7 7 8 9 10 9 9 8 9 9 9 8 8 8 9 9 8 8 7 7 7 7 8 8 8 8 8 9 9 9 9 10 10
8 8 8 8 7 7 6 6 7 7 7 7 7 7 9 10 10 10 9 9 10 10 9 9 9 10 10 10 10 9 9 9 9 9 10 10 10 10 10 10 10 10 11 11
9 9 8 8 7 7 6 7 8 8 8 8 8 8 9 10 10 10 10 10 11 11 11 11 11 11 11 11 11 11 11 11 11 11 11 11 12 11 11 12 12 12 12 12
10 10 9 8 8 7 7 8 8 8 9 9 9 9 10 10 11 11 12 12 11 12 12 12 13 12 12 12 13 13 13 13 13 13 13 13 13 13 13 13 13 14 13 13
12 11 10 10 9 9 9 9 9 9 9 9 9 10 10 10 11 12 12 12 12 13 13 14 14 14 14 14 14 14 15 15 15 15 14 14 14 14 14 14 14 15 15 15
12 12 11 11 10 10 10 9 9 10 10 10 10 11 11 11 11 12 13 13 14 15 15 15 15 15 15 16 16 16 16 15 16 16 16 16 16 16 16 16 16 16 16 16
13 13 12 12 12 11 11 11 10 11 11 12 12 11 12 12 13 13 14 14 15 15 15 15 16 16 17 17 17 17 17 17 17 17 18 18 17 17 17 17 17 17 17 17
14 15 14 13 13 13 12 12 12 12 12 13 13 12 13 13 14 14 14 15 16 16 16 17 17 17 18 18 18 18 19 19 19 18 18 18 18 18 18 18 18 18 18 18
16 16 15 15 15 14 14 13 13 13 13 13 14 14 14 14 14 15 15 16 16 17 17 18 18 18 18 18 19 19 20 20 20 19 19 19 19 19 19 18 18 18 18 18
16 16 16 16 16 15 15 15 14 15 15 15 15 16 15 15 16 16 16 17 17 17 18 18 18 19 19 19 19 20 19 19 20 20 20 20 20 20 20 20 19 19 19 18
17 17 17 17 17 17 17 16 16 16 16 16 17 17 16 16 16 17 17 17 18 18 19 19 19 20 20 20 20 20 20 20 21 21 21 21 21 22 22 22 21 21 21 21
18 18 18 18 18 18 18 18 18 18 18 18 18 19 18 18 18 18 18 19 19 19 20 20 20 20 21 21 21 21 21 21 21 21 21 21 22 23 24 24 24 23 23 23
19 19 19 19 20 19 19 19 19 19 19 19 19 19 19 19 19 19 19 20 20 20 21 21 21 21 21 21 22 22 22 22 22 22 23 23 23 24 25 25 25 24 24 24
20 20 20 21 21 21 21 21 21 21 21 20 19 20 20 20 21 20 21 21 21 21 21 21 21 21 21 22 22 23 23 23 23 23 23 23 24 24 24 24 24 25 25 25
22 22 21 21 21 21 21 21 22 22 22 22 21 21 20 21 21 21 21 21 21 22 22 22 22 22 22 22 23 23 23 23 23 24 24 24 24 24 25 24 24 25 25 26
23 22 22 22 22 23 22 21 22 22 23 23 23 22 22 22 22 22 22 22 22 22 23 23 23 23 23 23 23 24 24 24 24 24 24 24 24 24 24 24 25 25 25 26
23 24 24 23 24 25 23 22 23 23 24 24 25 24 24 24 23 23 23 23 23 23 23 24 24 24 24 24 24 25 25 25 25 24 24 24 24 24 25 25 25 25 25 26
24 24 25 25 26 26 24 24 24 25 25 25 25 25 25 25 25 24 24 24 24 24 24 24 24 24 24 24 25 25 25 25 25 25 24 24 24 24 24 25 26 27 27 27
24 25 26 26 27 28 26 25 25 26 26 25 26 25 25 25 25 24 24 25 25 25 24 24 24 24 24 24 24 25 25 25 26 26 25 25 25 25 25 25 26 27 27 27
24 25 25 26 28 28 27 27 26 27 26 26 26 26 26 25 25 25 24 25 25 25 25 24 24 24 24 24 24 25 25 25 26 26 26 26 26 25 26 26 25 26 27 28
26 26 26 27 28 28 27 27 27 27 27 27 27 27 26 26 26 26 25 25 25 25 25 25 25 25 25 25 25 25 25 26 26 25 26 26 26 26 26 27 27 27 28 29
27 27 27 27 28 28 27 27 27 27 27 27 27 27 27 26 26 26 26 26 26 25 25 25 25 26 26 26 26 25 26 26 26 26 27 27 26 26 27 27 28 28 28 28
28 27 27 28 28 28 28 27 27 27 27 27 27 27 27 27 27 27 27 27 26 26 26 26 26 26 26 27 27 26 26 27 27 27 27 27 27 27 27 28 28 28 28 28
27 28 28 28 28 28 28 28 28 27 27 27 27 28 28 28 28 28 28 28 27 26 27 27 26 27 27 28 27 27 27 27 28 28 28 27 27 27 28 28 28 28 28 28
27 27 28 28 28 29 28 28 28 27 27 27 28 28 28 29 28 28 27 27 27 27 27 27 27 27 27 28 28 28 28 28 28 27 27 28 27 26 27 27 28 29 29 28
Wind_Direction
247 247 245 246 245 251 259 259 252 249 246 247 248 249 249 247 247 248 248 245 246 251 259 265 266 268 267 263 262 266 267 264 263 267 267 267 269 266 262 261 259 257 255 254
246 243 245 248 250 252 261 260 257 255 253 254 251 248 252 250 248 248 245 245 247 251 258 262 263 262 264 264 264 265 268 267 267 270 272 270 269 269 267 265 267 262 259 258
246 247 249 251 255 257 258 256 252 254 256 259 262 259 256 252 251 251 251 251 251 253 258 263 266 267 267 266 264 263 266 268 269 270 271 270 269 267 267 267 266 262 260 260
246 250 250 250 254 257 256 255 255 257 260 266 267 265 260 257 252 253 255 257 257 258 259 262 265 269 268 266 265 263 265 268 271 272 272 271 270 269 267 267 265 264 262 261
247 250 250 250 254 257 258 259 260 261 263 267 270 270 264 261 256 255 256 256 256 258 261 261 264 267 268 267 266 265 266 267 269 272 273 271 271 270 269 268 266 266 265 264
248 249 250 250 253 256 260 264 267 267 268 269 271 272 269 264 260 259 258 256 256 257 259 259 261 264 267 268 266 267 268 269 271 273 274 273 271 270 269 268 268 267 266 264
249 250 251 251 252 255 260 264 270 273 272 270 271 272 273 270 263 262 261 259 256 256 259 261 261 264 265 266 266 267 269 271 273 273 274 272 270 270 269 269 268 268 265 262
250 252 251 252 253 256 260 262 264 269 272 272 272 274 274 273 268 265 263 261 259 258 260 262 263 264 265 266 267 267 267 269 271 272 272 271 269 269 269 268 267 266 264 261
250 253 253 253 254 255 258 259 264 268 270 270 272 276 276 275 272 269 265 263 262 261 262 264 265 266 267 267 267 267 265 267 268 270 270 269 269 269 269 269 266 263 261 259
249 253 254 254 255 255 258 261 263 267 270 271 272 274 276 277 275 270 268 267 264 263 264 265 266 266 268 268 267 270 269 269 267 268 269 268 267 269 269 270 269 264 262 259
250 252 254 254 254 258 259 260 262 265 267 269 273 276 278 279 277 275 271 269 268 265 266 266 267 268 267 267 270 271 270 269 268 268 269 269 268 268 268 270 268 263 262 260
251 253 254 255 256 257 258 259 261 266 268 269 271 275 278 280 278 276 272 271 271 270 268 267 267 268 266 267 270 270 270 270 270 270 271 272 271 268 268 268 267 265 262 261
251 253 255 256 257 257 258 259 261 264 267 270 273 277 278 279 278 276 274 272 272 273 271 269 269 269 268 269 270 270 270 270 272 272 272 272 271 270 269 268 268 266 262 260
252 254 256 259 262 262 261 262 263 265 268 271 273 275 276 277 277 276 276 275 274 275 274 272 270 271 271 272 270 270 270 271 271 272 272 273 272 271 270 269 268 265 262 260
255 255 257 259 261 260 260 262 263 265 268 270 273 274 275 276 277 277 277 278 277 277 276 275 273 273 274 273 271 270 269 271 272 273 274 273 273 272 270 268 267 264 263 262
256 256 257 259 262 260 261 263 264 266 267 269 272 273 274 275 276 278 278 278 278 276 276 275 274 275 275 274 272 270 270 271 272 273 275 274 273 272 270 268 267 265 264 264
255 256 257 259 262 263 262 265 266 267 269 271 272 272 273 274 276 276 278 278 277 276 275 275 275 276 276 274 272 272 271 271 271 273 274 275 274 273 270 268 267 266 265 265
255 256 259 261 263 264 267 266 267 270 271 271 271 271 273 275 276 276 276 277 276 276 277 276 277 276 276 275 274 272 273 273 272 274 275 274 274 274 272 269 268 267 266 265
256 257 259 262 266 268 268 268 268 269 271 272 272 273 275 276 276 276 276 276 276 276 278 277 277 276 277 277 275 274 274 273 274 273 273 273 274 273 272 271 270 270 269 268
259 259 262 264 268 270 270 269 269 270 271 271 273 273 274 274 275 275 274 273 274 275 277 278 278 278 277 277 275 273 273 274 275 273 273 273 273 273 272 273 272 270 269 269
260 262 265 267 269 270 271 271 271 272 274 273 273 274 274 273 273 273 273 273 274 275 276 278 279 279 278 277 276 275 273 273 275 274 272 274 274 274 273 273 274 273 272 270
262 264 265 267 268 271 272 272 271 272 273 273 272 272 273 272 272 271 271 273 275 276 278 278 278 279 279 278 277 274 273 272 272 273 273 274 273 273 275 275 276 277 276 273
263 265 266 266 268 271 272 272 272 272 271 271 271 272 272 272 272 271 271 272 274 276 278 278 277 278 279 278 278 275 272 272 272 273 274 274 274 274 274 275 277 279 278 276
265 264 266 267 268 270 271 271 271 271 271 271 270 270 271 271 271 271 270 271 273 275 276 277 277 277 277 277 277 276 273 272 272 273 273 273 275 274 275 276 277 278 279 279
266 266 268 269 269 268 269 270 270 270 271 272 272 273 272 272 272 271 270 269 271 273 274 276 277 277 276 276 276 277 277 276 274 273 273 274 274 273 274 276 278 279 279 279
266 267 268 268 268 268 269 270 270 270 271 272 273 274 274 274 274 271 269 268 269 272 274 275 275 276 277 278 277 277 277 277 275 275 275 274 276 274 273 275 278 279 279 279
Height
5844 5845 5846 5846 5846 5846 5846 5846 5846 5846 5846 5847 5848 5848 5848 5848 5848 5849 5849 5849 5849 5850 5850 5850 5850 5850 5850 5850 5849 5849 5849 5849 5849 5848 5848 5848 5848 5847 5847 5847 5847 5847 5847 5847
5843 5843 5844 5843 5844 5844 5844 5845 5845 5844 5844 5845 5846 5846 5846 5845 5846 5846 5847 5847 5847 5848 5848 5848 5848 5848 5848 5848 5848 5848 5847 5847 5847 5847 5846 5846 5846 5845 5845 5845 5845 5844 5844 5844
5840 5842 5841 5842 5842 5842 5842 5843 5843 5843 5843 5843 5844 5844 5844 5843 5844 5844 5844 5845 5845 5845 5846 5846 5846 5846 5846 5846 5846 5845 5845 5845 5845 5845 5844 5844 5843 5843 5843 5843 5842 5842 5842 5842
5837 5838 5839 5839 5840 5840 5840 5841 5841 5841 5841 5841 5842 5842 5842 5841 5841 5841 5842 5842 5843 5843 5843 5843 5843 5843 5843 5843 5843 5843 5843 5843 5842 5842 5842 5841 5841 5840 5840 5840 5839 5839 5839 5839
5835 5836 5837 5837 5838 5838 5838 5838 5838 5839 5839 5839 5839 5839 5840 5838 5839 5839 5839 5839 5840 5840 5840 5840 5840 5840 5840 5840 5840 5840 5840 5840 5840 5839 5839 5838 5838 5837 5837 5837 5836 5836 5836 5836
5833 5833 5834 5834 5835 5835 5835 5836 5836 5836 5836 5837 5837 5837 5837 5836 5836 5836 5836 5836 5836 5836 5836 5837 5837 5837 5837 5837 5837 5837 5837 5836 5836 5836 5835 5835 5835 5834 5834 5833 5833 5833 5832 5832
5829 5830 5831 5831 5832 5832 5833 5834 5834 5834 5834 5834 5834 5833 5834 5833 5832 5832 5833 5833 5832 5833 5833 5833 5833 5833 5833 5833 5833 5833 5833 5832 5832 5832 5831 5831 5831 5830 5830 5829 5829 5829 5828 5828
5826 5827 5828 5828 5829 5829 5830 5831 5832 5832 5832 5831 5830 5830 5830 5829 5829 5828 5829 5829 5829 5829 5829 5829 5829 5829 5829 5829 5829 5829 5828 5828 5828 5827 5827 5826 5826 5826 5825 5825 5825 5824 5824 5824
5823 5824 5824 5825 5825 5826 5827 5827 5828 5828 5827 5827 5827 5827 5826 5825 5825 5824 5824 5824 5825 5825 5825 5825 5825 5825 5825 5824 5824 5824 5823 5823 5823 5822 5822 5821 5821 5821 5821 5820 5820 5819 5819 5819
5818 5820 5820 5821 5821 5822 5823 5823 5824 5824 5823 5823 5824 5823 5823 5821 5820 5820 5820 5820 5820 5820 5820 5820 5820 5820 5820 5820 5819 5819 5818 5818 5817 5817 5816 5816 5816 5816 5815 5815 5815 5814 5814 5814
5814 5816 5816 5817 5817 5818 5819 5819 5819 5819 5819 5820 5819 5821 5818 5817 5816 5815 5815 5815 5815 5815 5815 5815 5815 5815 5814 5814 5814 5813 5813 5812 5812 5812 5811 5811 5810 5810 5810 5810 5809 5809 5809 5808
5809 5811 5811 5812 5813 5813 5814 5814 5815 5815 5815 5814 5814 5817 5813 5812 5811 5811 5810 5810 5810 5810 5810 5809 5809 5809 5809 5808 5808 5807 5807 5807 5806 5806 5805 5805 5804 5804 5804 5804 5803 5803 5803 5803
5804 5806 5807 5807 5809 5809 5809 5809 5809 5810 5810 5809 5810 5812 5808 5807 5806 5805 5805 5805 5804 5804 5804 5803 5803 5803 5802 5802 5802 5801 5801 5801 5800 5800 5799 5799 5798 5798 5797 5797 5797 5797 5796 5797
5799 5800 5802 5803 5803 5803 5803 5804 5804 5804 5804 5804 5805 5804 5803 5802 5801 5800 5799 5799 5799 5798 5798 5797 5797 5796 5796 5796 5795 5795 5795 5794 5794 5793 5793 5792 5792 5791 5790 5790 5790 5789 5789 5790
5793 5794 5795 5796 5796 5797 5797 5798 5798 5798 5798 5799 5799 5798 5797 5796 5795 5794 5794 5793 5792 5792 5791 5791 5790 5790 5789 5789 5788 5788 5788 5788 5787 5787 5786 5786 5785 5784 5783 5783 5782 5782 5782 5782
5787 5788 5789 5790 5790 5790 5791 5792 5792 5792 5792 5792 5792 5792 5791 5789 5789 5788 5787 5787 5786 5785 5784 5784 5783 5783 5783 5782 5781 5781 5781 5781 5780 5780 5779 5778 5778 5777 5776 5776 5775 5775 5775 5775
5780 5782 5783 5784 5784 5784 5785 5786 5785 5785 5785 5785 5785 5786 5784 5783 5782 5781 5781 5780 5779 5778 5778 5777 5777 5776 5776 5775 5775 5774 5774 5773 5773 5773 5772 5771 5770 5770 5769 5768 5768 5768 5767 5767
5775 5775 5776 5777 5778 5778 5781 5779 5779 5778 5778 5778 5777 5777 5776 5776 5775 5774 5774 5773 5772 5772 5771 5770 5769 5769 5768 5768 5767 5767 5766 5766 5765 5765 5764 5763 5763 5762 5762 5761 5761 5760 5760 5760
5768 5769 5769 5770 5770 5771 5773 5772 5772 5771 5771 5771 5770 5770 5769 5768 5768 5767 5766 5766 5765 5764 5764 5763 5762 5761 5761 5760 5759 5759 5759 5758 5758 5758 5757 5756 5755 5754 5754 5753 5753 5753 5752 5752
5761 5761 5763 5762 5762 5763 5766 5765 5763 5764 5763 5763 5762 5762 5761 5761 5761 5761 5759 5758 5757 5757 5756 5755 5754 5754 5753 5752 5752 5751 5751 5751 5750 5750 5749 5748 5747 5747 5746 5746 5745 5745 5744 5744
5754 5754 5755 5755 5754 5755 5757 5756 5756 5757 5757 5755 5754 5753 5753 5753 5753 5753 5751 5750 5750 5749 5748 5748 5747 5746 5746 5745 5744 5744 5743 5743 5743 5742 5741 5740 5740 5739 5739 5738 5737 5737 5736 5736
5746 5746 5747 5747 5747 5749 5748 5747 5748 5748 5747 5746 5745 5745 5745 5744 5744 5744 5743 5742 5742 5741 5740 5740 5739 5739 5738 5737 5736 5736 5735 5735 5735 5734 5733 5733 5732 5732 5731 5730 5729 5728 5728 5727
5737 5739 5739 5740 5741 5740 5739 5739 5738 5738 5738 5737 5737 5737 5737 5736 5736 5735 5735 5734 5734 5733 5733 5732 5731 5731 5730 5729 5728 5728 5727 5727 5726 5726 5725 5725 5724 5723 5722 5722 5721 5720 5719 5718
5729 5730 5730 5730 5731 5731 5730 5729 5729 5729 5729 5728 5728 5728 5728 5728 5727 5727 5726 5726 5725 5725 5724 5723 5723 5722 5722 5721 5720 5720 5719 5718 5718 5717 5716 5716 5715 5715 5714 5713 5712 5711 5710 5709
5721 5721 5721 5721 5722 5721 5721 5721 5720 5720 5720 5720 5720 5720 5719 5719 5718 5718 5717 5717 5717 5716 5715 5715 5715 5714 5713 5712 5712 5711 5710 5710 5709 5709 5708 5708 5707 5706 5705 5704 5703 5703 5702 5700
5712 5712 5712 5712 5712 5712 5712 5712 5711 5712 5711 5711 5711 5711 5710 5710 5709 5708 5708 5708 5708 5707 5707 5706 5706 5705 5704 5703 5703 5702 5702 5701 5700 5700 5699 5699 5698 5697 5696 5695 5695 5693 5693 5691